Location: DARK SKY Beskydy - Park tmavé oblohy, www.darkskybeskydy.cz
(49.4926°N, 18.5016°E)
Time: 08:26:43
(UTC+02:00)

STARLINK-31788 - Pass Details

Date: 18 June 2024
Orbit: 462 x 464 km, 53.2° (Epoch: 13 October)

Event Time Altitude Azimuth Distance (km) Brightness Sun altitude
Rises 21:22:00 0° 281° (WNW) 2,486 8.1 -4.0°
Reaches altitude 10° 21:24:13 10° 288° (WNW) 1,612 7.2 -4.3°
Maximum altitude 21:27:43 45° 3° (N) 638 4.4 -4.7°
Drops below altitude 10° 21:31:13 10° 77° (ENE) 1,610 5.7 -5.1°
Enters shadow 21:34:32 -4° 86° (E) 2,926 6.9 -5.4°
